AFR033 LFPG-EBBR

Flight info

Callsign AFR033
Flight time 0h 35m
Altitude 22000
Route NURMO DCT CMB Z373 ARVOL
Aircraft A320/M-SDE3FGHIRWY/LB1

Departure

Time 2026-04-30 20:17
Airport Charles de Gaulle International Airport (LFPG)

Arrival

Time 2026-04-30 20:52
Airport Brussels Airport (EBBR)
Time Latitude Longitude Altitude Speed Heading
2026-04-30 19:47 49.00287 2.58605 361 ft 0 kts 266°
2026-04-30 20:05 49.00288 2.58616 362 ft 4 kts 266°
2026-04-30 20:05 49.00289 2.58657 361 ft 4 kts 266°
2026-04-30 20:05 49.00297 2.58729 359 ft 4 kts 235°
2026-04-30 20:06 49.00313 2.58744 359 ft 3 kts 176°
2026-04-30 20:06 49.00329 2.58742 357 ft 0 kts 176°
2026-04-30 20:09 49.00325 2.58743 354 ft 1 kts 176°
2026-04-30 20:10 49.00188 2.58758 361 ft 11 kts 176°
2026-04-30 20:10 49.00113 2.58768 354 ft 10 kts 173°
2026-04-30 20:10 49.00050 2.58735 359 ft 9 kts 231°
2026-04-30 20:11 49.00017 2.58454 357 ft 16 kts 264°
2026-04-30 20:11 49.00007 2.58287 355 ft 16 kts 266°
2026-04-30 20:11 49.00000 2.58122 357 ft 16 kts 266°
2026-04-30 20:12 48.99981 2.57723 354 ft 20 kts 266°
2026-04-30 20:12 48.99971 2.57512 354 ft 20 kts 266°
2026-04-30 20:12 48.99962 2.57307 354 ft 19 kts 265°
2026-04-30 20:13 48.99950 2.57105 358 ft 19 kts 265°
2026-04-30 20:13 48.99938 2.56909 354 ft 18 kts 265°
2026-04-30 20:13 48.99927 2.56718 354 ft 18 kts 265°
2026-04-30 20:13 48.99917 2.56528 361 ft 18 kts 265°
2026-04-30 20:14 48.99907 2.56343 354 ft 17 kts 265°
2026-04-30 20:14 48.99896 2.56161 354 ft 17 kts 262°
2026-04-30 20:14 48.99839 2.56028 360 ft 15 kts 187°
2026-04-30 20:14 48.99774 2.56028 360 ft 9 kts 177°
2026-04-30 20:15 48.99726 2.56032 355 ft 7 kts 175°
2026-04-30 20:15 48.99714 2.56034 355 ft 0 kts 175°
2026-04-30 20:15 48.99711 2.56034 355 ft 3 kts 175°
2026-04-30 20:15 48.99642 2.56053 356 ft 12 kts 156°
2026-04-30 20:16 48.99616 2.56162 356 ft 12 kts 88°
2026-04-30 20:16 48.99632 2.56435 356 ft 62 kts 85°
2026-04-30 20:16 48.99696 2.57499 355 ft 137 kts 84°
2026-04-30 20:16 48.99792 2.59196 718 ft 166 kts 86°
2026-04-30 20:17 48.99984 2.60968 1594 ft 174 kts 71°
2026-04-30 20:17 49.00533 2.62667 2337 ft 193 kts 69°
2026-04-30 20:17 49.01160 2.64619 2945 ft 217 kts 69°
2026-04-30 20:17 49.01852 2.66828 3645 ft 243 kts 69°
2026-04-30 20:18 49.02604 2.69273 4455 ft 264 kts 68°
2026-04-30 20:18 49.03264 2.71940 5416 ft 275 kts 76°
2026-04-30 20:18 49.04038 2.74638 6545 ft 283 kts 52°
2026-04-30 20:18 49.05631 2.76406 7670 ft 289 kts 20°
2026-04-30 20:19 49.07630 2.76851 8830 ft 293 kts
2026-04-30 20:19 49.09009 2.76733 9646 ft 296 kts 355°
2026-04-30 20:19 49.11790 2.76202 10680 ft 320 kts 353°
2026-04-30 20:19 49.14073 2.75804 11326 ft 337 kts 356°
2026-04-30 20:20 49.16436 2.75530 12277 ft 344 kts 358°
2026-04-30 20:20 49.18848 2.75389 13292 ft 348 kts
2026-04-30 20:20 49.21288 2.75349 14242 ft 353 kts
2026-04-30 20:20 49.23754 2.75366 15101 ft 358 kts
2026-04-30 20:21 49.26275 2.75403 15958 ft 363 kts
2026-04-30 20:21 49.28818 2.75440 16802 ft 368 kts
2026-04-30 20:21 49.31378 2.75467 17649 ft 372 kts
2026-04-30 20:21 49.33984 2.75479 18496 ft 377 kts
2026-04-30 20:22 49.36627 2.75480 18864 ft 380 kts
2026-04-30 20:22 49.39279 2.75476 18994 ft 381 kts
2026-04-30 20:22 49.41936 2.75474 19025 ft 381 kts
2026-04-30 20:22 49.44578 2.75474 19033 ft 381 kts
2026-04-30 20:23 49.47236 2.75474 19030 ft 381 kts
2026-04-30 20:23 49.49884 2.75479 19030 ft 381 kts
2026-04-30 20:23 49.52501 2.75485 19029 ft 381 kts
2026-04-30 20:23 49.55156 2.75488 19044 ft 381 kts
2026-04-30 20:24 49.57849 2.75490 19038 ft 381 kts
2026-04-30 20:24 49.60456 2.75495 19038 ft 381 kts
2026-04-30 20:24 49.63098 2.75504 19041 ft 381 kts
2026-04-30 20:24 49.65719 2.75512 19046 ft 381 kts
2026-04-30 20:25 49.71004 2.75520 19047 ft 381 kts
2026-04-30 20:25 49.73675 2.75524 19044 ft 381 kts
2026-04-30 20:26 49.78077 2.75528 19039 ft 381 kts
2026-04-30 20:26 49.83265 2.76791 19047 ft 375 kts 22°
2026-04-30 20:26 49.85618 2.78464 19054 ft 372 kts 33°
2026-04-30 20:27 49.89953 2.82688 18883 ft 358 kts 35°
2026-04-30 20:27 49.94116 2.86764 17943 ft 351 kts 35°
2026-04-30 20:28 49.98208 2.90791 16912 ft 346 kts 35°
2026-04-30 20:28 50.02250 2.94767 15984 ft 342 kts 35°
2026-04-30 20:29 50.06238 2.98694 15141 ft 338 kts 35°
2026-04-30 20:30 50.12186 3.04591 15062 ft 339 kts 35°
2026-04-30 20:30 50.18139 3.10494 15062 ft 339 kts 35°
2026-04-30 20:31 50.24141 3.16499 14938 ft 337 kts 36°
2026-04-30 20:32 50.29833 3.22653 13604 ft 331 kts 38°
2026-04-30 20:32 50.33562 3.26750 12685 ft 326 kts 38°
2026-04-30 20:33 50.35418 3.28780 12217 ft 323 kts 38°
2026-04-30 20:33 50.39086 3.32775 11313 ft 319 kts 37°
2026-04-30 20:33 50.40892 3.34733 10870 ft 318 kts 38°
2026-04-30 20:34 50.44494 3.38653 10123 ft 315 kts 38°
2026-04-30 20:34 50.47968 3.42435 10070 ft 295 kts 38°
2026-04-30 20:35 50.49636 3.44254 10069 ft 293 kts 38°
2026-04-30 20:35 50.51309 3.46087 10069 ft 293 kts 38°
2026-04-30 20:35 50.54640 3.49741 9617 ft 289 kts 38°
2026-04-30 20:36 50.56288 3.51549 9173 ft 288 kts 38°
2026-04-30 20:36 50.57913 3.53327 8767 ft 286 kts 38°
2026-04-30 20:36 50.61154 3.56888 8082 ft 283 kts 38°
2026-04-30 20:37 50.62770 3.58672 8076 ft 284 kts 38°
2026-04-30 20:37 50.64389 3.60456 8082 ft 285 kts 38°
2026-04-30 20:37 50.66013 3.62243 8084 ft 285 kts 38°
2026-04-30 20:37 50.67640 3.64034 8086 ft 285 kts 38°
2026-04-30 20:38 50.69258 3.65817 8082 ft 285 kts 38°
2026-04-30 20:38 50.70882 3.67612 8079 ft 284 kts 38°
2026-04-30 20:38 50.72500 3.69399 8081 ft 284 kts 38°
2026-04-30 20:39 50.75732 3.72971 7963 ft 282 kts 38°
2026-04-30 20:39 50.77333 3.74746 7506 ft 281 kts 39°
2026-04-30 20:39 50.78928 3.76521 7087 ft 278 kts 39°
2026-04-30 20:40 50.82046 3.79995 6212 ft 275 kts 39°
2026-04-30 20:40 50.83627 3.81762 5806 ft 272 kts 39°
2026-04-30 20:40 50.85109 3.83415 5680 ft 258 kts 39°
2026-04-30 20:41 50.87731 3.86716 5429 ft 229 kts 54°
2026-04-30 20:41 50.88622 3.88727 5307 ft 215 kts 64°
2026-04-30 20:41 50.89375 3.90682 5185 ft 205 kts 64°
2026-04-30 20:41 50.90110 3.92572 5060 ft 197 kts 64°
2026-04-30 20:42 50.90815 3.94382 4931 ft 190 kts 65°
2026-04-30 20:42 50.91507 3.96164 4749 ft 187 kts 65°
2026-04-30 20:42 50.92361 3.99863 4282 ft 174 kts 93°
2026-04-30 20:43 50.92266 4.01729 4096 ft 168 kts 108°
2026-04-30 20:43 50.91953 4.03478 3897 ft 165 kts 110°
2026-04-30 20:43 50.91644 4.05227 3679 ft 164 kts 110°
2026-04-30 20:44 50.91042 4.08674 3251 ft 161 kts 110°
2026-04-30 20:44 50.90742 4.10378 3047 ft 159 kts 109°
2026-04-30 20:44 50.90146 4.13724 2608 ft 158 kts 109°
2026-04-30 20:45 50.89559 4.17025 2230 ft 154 kts 108°
2026-04-30 20:45 50.89274 4.18634 2140 ft 151 kts 108°
2026-04-30 20:45 50.89002 4.20177 2125 ft 137 kts 109°
2026-04-30 20:46 50.88339 4.23907 2113 ft 113 kts 109°
2026-04-30 20:46 50.88124 4.25105 2113 ft 113 kts 109°
2026-04-30 20:47 50.87697 4.27484 2112 ft 112 kts 110°
2026-04-30 20:47 50.87486 4.28661 2114 ft 112 kts 110°
2026-04-30 20:48 50.87064 4.31030 2114 ft 112 kts 109°
2026-04-30 20:48 50.86853 4.32207 2119 ft 112 kts 109°
2026-04-30 20:48 50.86646 4.33393 2119 ft 112 kts 107°
2026-04-30 20:48 50.86716 4.34622 2119 ft 119 kts 79°
2026-04-30 20:49 50.87060 4.35790 2114 ft 113 kts 76°
2026-04-30 20:49 50.87387 4.36904 1974 ft 111 kts 75°
2026-04-30 20:49 50.87721 4.37997 1742 ft 110 kts 75°
2026-04-30 20:50 50.88367 4.40152 1238 ft 109 kts 74°
2026-04-30 20:50 50.88696 4.41238 1072 ft 109 kts 73°
2026-04-30 20:50 50.89012 4.42310 868 ft 111 kts 73°
2026-04-30 20:50 50.89311 4.43434 664 ft 111 kts 70°
2026-04-30 20:51 50.89628 4.44557 427 ft 112 kts 72°
2026-04-30 20:51 50.90242 4.46748 161 ft 99 kts 69°
2026-04-30 20:51 50.90482 4.47605 141 ft 71 kts 65°
2026-04-30 20:52 50.90657 4.48223 138 ft 53 kts 66°
2026-04-30 20:52 50.90790 4.48684 135 ft 42 kts 66°
2026-04-30 20:52 50.90977 4.49419 133 ft 32 kts 83°
2026-04-30 20:53 50.90964 4.49632 125 ft 0 kts 110°
2026-04-30 20:55 50.90945 4.49686 121 ft 15 kts 123°
2026-04-30 20:55 50.90970 4.49844 123 ft 17 kts 47°
2026-04-30 20:55 50.91050 4.49966 121 ft 8 kts 45°
2026-04-30 20:56 50.91057 4.50092 123 ft 5 kts 167°
2026-04-30 20:56 50.90994 4.50076 125 ft 16 kts 191°
2026-04-30 20:56 50.90680 4.49954 135 ft 33 kts 192°
2026-04-30 20:57 50.90449 4.49866 137 ft 36 kts 194°
2026-04-30 20:57 50.90255 4.49744 136 ft 20 kts 245°
2026-04-30 20:57 50.90276 4.49692 135 ft 6 kts 344°
2026-04-30 20:58 50.90393 4.49553 136 ft 10 kts 264°
2026-04-30 20:58 50.90362 4.49434 136 ft 17 kts 251°
2026-04-30 20:58 50.90355 4.49375 137 ft 1 kts 259°
2026-04-30 20:58 50.90346 4.49333 137 ft 12 kts 249°
2026-04-30 20:59 50.90436 4.49243 135 ft 11 kts
2026-04-30 20:59 50.90517 4.49225 133 ft 13 kts 339°
2026-04-30 21:00 50.90635 4.49061 125 ft 11 kts 259°
2026-04-30 21:00 50.90553 4.48742 132 ft 19 kts 247°
2026-04-30 21:01 50.90432 4.48303 140 ft 17 kts 245°
2026-04-30 21:01 50.90379 4.48139 140 ft 17 kts 242°
2026-04-30 21:01 50.90318 4.47958 141 ft 8 kts 247°
2026-04-30 21:02 50.90294 4.47872 140 ft 10 kts 246°
2026-04-30 21:02 50.90255 4.47772 138 ft 11 kts 224°
2026-04-30 21:02 50.90195 4.47747 140 ft 9 kts 163°
2026-04-30 21:02 50.90174 4.47758 140 ft 0 kts 158°
2026-04-30 21:03 50.90169 4.47762 140 ft 0 kts 158°